Powrót do katalogu

SL-3 R/B

AktywnyPO
NORAD 8846·ROCKET BODY·🇷🇺 Russia

Wystrzelony May 15, 1976 z Plesetsk Cosmodrome

Loading…

Następne Przeloty (najbliższe 24 godziny)

TLE

ŚwieżeSource: Space-Track

Epoka: Sep 14, 2026, 06:10 UTC

1 08846U 76043B   26257.25750768 -.00000020  00000-0 -18445-4 0  9998
2 08846  81.2225 265.7333 0040422 206.9391 152.9681 14.09036390586094

Śledź SL-3 R/B w czasie rzeczywistym z AllMySat

Download on the App Store